Location: Asheville, NC
(35.6000°N, 82.5500°W)
Time: 09:20:12
(UTC-04:00)

Vanguard 2 - Pass Details

Date: 16 March 2018
Orbit: 554 x 2939 km, 32.9° (Epoch: 24 June)

Event Time Altitude Azimuth Distance (km) Brightness Sun altitude
Rises 17:11:22 0° 284° (WNW) 6,709 13.0 28.2°
Reaches altitude 10° 17:16:01 10° 279° (W) 5,760 13.0 27.3°
Maximum altitude 17:32:24 46° 214° (SW) 3,339 11.8 24.2°
Drops below altitude 10° 17:45:22 10° 147° (SSE) 4,610 11.4 21.8°
Sets 17:48:40 0° 140° (SE) 5,320 11.6 21.1°
